NY5V Weather Reports


Display with metric or nautical units.
time (UTC)temp
F
wind
direction
speed
MPH
gust
MPH
rain 1hr
in
rain 24hr
in
rain mn
in
humidity
%
barometer
mb
20260902142018 83 66 1.0 2.0 0.00 0.00 0.00 83 1016.3
20260902141013 82 64 0.0 1.0 0.00 0.00 0.00 84 1016.2
20260902140009 81 63 1.0 1.0 0.00 0.00 0.00 87 1016.0
20260902135003 80 67 0.0 0.0 0.00 0.00 0.00 88 1016.2
20260902133959 79 52 1.0 1.0 0.00 0.00 0.00 89 1016.2
20260902132955 78 60 1.0 1.0 0.00 0.00 0.00 90 1016.0
20260902131950 78 56 1.0 1.0 0.00 0.00 0.00 91 1016.1
20260902130947 77 70 0.0 0.0 0.00 0.00 0.00 92 1016.0
20260902125943 77 63 1.0 1.0 0.00 0.00 0.00 93 1016.0
20260902124940 76 65 1.0 1.0 0.00 0.00 0.00 93 1016.2
20260902123937 76 57 0.0 0.0 0.00 0.00 0.00 94 1016.0
20260902122937 75 60 0.0 1.0 0.00 0.00 0.00 94 1015.7
20260902121935 75 57 0.0 0.0 0.00 0.00 0.00 94 1015.8
20260902120930 75 60 0.0 0.0 0.00 0.00 0.00 93 1015.8
20260902115926 75 56 0.0 0.0 0.00 0.00 0.00 93 1015.8
20260902114924 75 57 0.0 0.0 0.00 0.00 0.00 93 1015.7
20260902113920 75 52 0.0 0.0 0.00 0.00 0.00 92 1015.8
20260902112915 75 61 0.0 0.0 0.00 0.00 0.00 92 1015.7
20260902111913 75 57 0.0 0.0 0.00 0.00 0.00 91 1015.7
20260902110911 75 56 0.0 0.0 0.00 0.00 0.00 91 1015.7
20260902105907 75 55 0.0 0.0 0.00 0.00 0.00 90 1015.7
20260902104903 75 54 0.0 0.0 0.00 0.00 0.00 90 1015.5
20260902103858 76 57 0.0 0.0 0.00 0.00 0.00 89 1015.5
20260902102854 75 56 0.0 0.0 0.00 0.00 0.00 90 1015.7
20260902101854 75 51 0.0 0.0 0.00 0.00 0.00 90 1015.9
20260902100853 76 53 0.0 0.0 0.00 0.00 0.00 89 1015.8
20260902095848 76 55 0.0 0.0 0.00 0.00 0.00 88 1015.5
20260902094848 76 55 0.0 0.0 0.00 0.00 0.00 88 1015.4
20260902093844 76 49 0.0 0.0 0.00 0.00 0.00 87 1015.5
20260902092838 77 51 0.0 0.0 0.00 0.00 0.00 87 1015.4
20260902091834 76 57 0.0 0.0 0.00 0.00 0.00 87 1015.7
20260902090832 77 53 0.0 0.0 0.00 0.00 0.00 86 1015.5
20260902085830 77 56 0.0 0.0 0.00 0.00 0.00 85 1015.5
20260902084827 77 57 0.0 0.0 0.00 0.00 0.00 85 1015.3
20260902083825 77 52 0.0 0.0 0.00 0.00 0.00 85 1015.6
20260902082820 77 51 0.0 0.0 0.00 0.00 0.00 85 1015.4
20260902081818 77 52 0.0 0.0 0.00 0.00 0.00 84 1015.5
20260902080814 78 58 0.0 0.0 0.00 0.00 0.00 83 1015.5
20260902075810 78 52 0.0 0.0 0.00 0.00 0.00 82 1015.7
20260902074807 78 53 0.0 0.0 0.00 0.00 0.00 82 1015.9
20260902073803 78 49 0.0 0.0 0.00 0.00 0.00 81 1015.8
20260902072801 78 50 0.0 0.0 0.00 0.00 0.00 81 1015.9
20260902071759 78 52 0.0 0.0 0.00 0.00 0.00 81 1016.0
20260902070756 79 47 0.0 0.0 0.00 0.00 0.00 80 1015.9
20260902065754 79 51 0.0 0.0 0.00 0.00 0.00 79 1015.8
20260902064752 80 52 0.0 0.0 0.00 0.00 0.00 78 1015.6
20260902063748 80 48 0.0 0.0 0.00 0.00 0.00 78 1015.7
20260902062743 80 51 0.0 0.0 0.00 0.00 0.00 77 1016.0
20260902061742 80 49 0.0 0.0 0.00 0.00 0.00 76 1016.0
20260902060741 81 41 0.0 0.0 0.00 0.00 0.00 75 1015.8
20260902055737 81 55 0.0 0.0 0.00 0.00 0.00 75 1015.9
20260902054734 81 50 0.0 0.0 0.00 0.00 0.00 74 1015.9
20260902053731 82 52 0.0 0.0 0.00 0.00 0.00 73 1015.8
20260902052730 82 49 0.0 0.0 0.00 0.00 0.00 73 1015.9
20260902051725 82 52 0.0 0.0 0.00 0.00 0.00 72 1016.1
20260902050720 82 55 0.0 0.0 0.00 0.00 0.00 72 1016.0
20260902045716 83 49 0.0 0.0 0.00 0.00 0.00 71 1016.1
20260902044713 82 63 0.0 0.0 0.00 0.00 0.00 72 1015.8
20260902043710 82 51 0.0 0.0 0.00 0.00 0.00 73 1016.0
20260902042709 83 49 0.0 0.0 0.00 0.00 0.00 72 1015.7
20260902041706 83 54 0.0 0.0 0.00 0.00 0.00 71 1015.6
20260902040706 84 53 0.0 0.0 0.00 0.00 0.00 70 1015.7
20260902035705 84 49 0.0 0.0 0.00 0.00 0.00 70 1015.7
20260902034700 84 55 0.0 0.0 0.00 0.00 0.00 70 1015.7
20260902033659 85 51 0.0 0.0 0.00 0.00 0.00 69 1015.7
20260902032658 85 42 0.0 1.0 0.00 0.00 0.00 69 1015.9
20260902031653 85 49 0.0 0.0 0.00 0.00 0.00 69 1015.6
20260902030651 85 51 0.0 0.0 0.00 0.00 0.00 69 1015.4
20260902025649 85 18 1.0 2.0 0.00 0.00 0.00 69 1015.3
20260902024646 86 52 0.0 0.0 0.00 0.00 0.00 69 1015.2
20260902023643 86 47 0.0 0.0 0.00 0.00 0.00 69 1015.2
20260902022643 86 40 0.0 0.0 0.00 0.00 0.00 68 1014.9
20260902021639 86 45 0.0 1.0 0.00 0.00 0.00 68 1014.6
20260902020636 86 49 0.0 0.0 0.00 0.00 0.00 68 1014.6
20260902015633 87 39 1.0 1.0 0.00 0.00 0.00 67 1014.6
20260902014630 87 50 0.0 0.0 0.00 0.00 0.00 66 1014.5
20260902013625 87 57 0.0 0.0 0.00 0.00 0.00 66 1014.3
20260902012622 88 50 0.0 0.0 0.00 0.00 0.00 65 1014.6
20260902011619 88 51 0.0 0.0 0.00 0.00 0.00 65 1014.3
20260902010618 89 47 4.0 6.0 0.00 0.00 0.00 64 1014.3
20260902005618 89 19 1.0 2.0 0.00 0.00 0.00 63 1014.2
20260902004613 90 55 1.0 2.0 0.00 0.00 0.00 62 1014.1
20260902003610 91 30 3.0 6.0 0.00 0.00 0.00 60 1013.8
20260902002606 93 31 1.0 2.0 0.00 0.00 0.00 49 1013.8
20260902001602 94 59 0.0 1.0 0.00 0.00 0.00 48 1013.4
20260902000558 95 90 1.0 1.0 0.00 0.00 0.00 46 1013.3
20260901235552 96 60 1.0 1.0 0.00 0.00 0.00 46 1013.2
20260901234547 96 61 0.0 1.0 0.00 0.00 0.00 46 1013.3
20260901233542 96 58 0.0 0.0 0.00 0.00 0.00 46 1013.2
20260901232539 96 95 1.0 2.0 0.00 0.00 0.00 45 1013.2
20260901231537 96 72 2.0 2.0 0.00 0.00 0.00 45 1013.3
20260901230533 97 73 0.0 0.0 0.00 0.00 0.00 45 1013.5
20260901225529 97 89 1.0 1.0 0.00 0.00 0.00 45 1013.4
20260901224525 97 356 3.0 3.0 0.00 0.00 0.00 44 1013.5
20260901223522 97 111 3.0 4.0 0.00 0.00 0.00 45 1013.2
20260901222519 97 68 1.0 1.0 0.00 0.00 0.00 44 1013.4
20260901221516 98 53 1.0 2.0 0.00 0.00 0.00 45 1013.3
20260901220511 98 25 3.0 6.0 0.00 0.00 0.00 43 1013.5
20260901215508 97 74 1.0 1.0 0.00 0.00 0.00 45 1013.5
20260901214507 96 49 1.0 1.0 0.00 0.00 0.00 46 1013.6
20260901213502 95 92 1.0 1.0 0.00 0.00 0.00 47 1014.1
20260901212456 97 49 1.0 1.0 0.00 0.00 0.00 48 1013.8
20260901211454 97 51 0.0 1.0 0.00 0.00 0.00 47 1014.0
20260901210452 96 57 0.0 0.0 0.00 0.00 0.00 50 1014.3
20260901205448 97 64 0.0 2.0 0.00 0.00 0.00 48 1014.1
20260901204445 96 53 1.0 1.0 0.00 0.00 0.00 49 1014.5
20260901203445 95 46 0.0 0.0 0.00 0.00 0.00 51 1014.7
20260901202441 96 75 2.0 3.0 0.00 0.00 0.00 50 1014.6
20260901201437 95 59 2.0 2.0 0.00 0.00 0.00 51 1014.9
20260901200432 96 64 0.0 1.0 0.00 0.00 0.00 49 1015.1
20260901195430 95 61 0.0 0.0 0.00 0.00 0.00 51 1014.8
20260901194426 94 108 1.0 2.0 0.00 0.00 0.00 52 1015.2
20260901193421 96 119 4.0 4.0 0.00 0.00 0.00 51 1015.3
20260901192417 97 105 1.0 3.0 0.00 0.00 0.00 49 1015.1
20260901191414 96 52 0.0 0.0 0.00 0.00 0.00 50 1015.2
20260901190410 97 98 1.0 2.0 0.00 0.00 0.00 48 1015.1
20260901185408 97 55 1.0 2.0 0.00 0.00 0.00 49 1015.3
20260901184404 93 69 1.0 2.0 0.00 0.00 0.00 54 1015.8
20260901183404 94 100 2.0 3.0 0.00 0.00 0.00 53 1015.7
20260901182401 96 91 2.0 2.0 0.00 0.00 0.00 51 1015.9
20260901181356 97 115 3.0 4.0 0.00 0.00 0.00 50 1016.1
20260901180354 97 37 1.0 1.0 0.00 0.00 0.00 51 1016.4
20260901175354 93 56 0.0 0.0 0.00 0.00 0.00 55 1016.5
20260901174350 95 87 0.0 0.0 0.00 0.00 0.00 52 1016.8
20260901173347 93 63 1.0 1.0 0.00 0.00 0.00 56 1016.9
20260901172342 92 106 2.0 2.0 0.00 0.00 0.00 57 1016.9
20260901171340 94 52 0.0 1.0 0.00 0.00 0.00 56 1017.3
20260901170339 94 73 0.0 0.0 0.00 0.00 0.00 55 1017.4
20260901165339 95 36 1.0 1.0 0.00 0.00 0.00 55 1017.6
20260901164337 95 86 2.0 2.0 0.00 0.00 0.00 56 1017.5
20260901163332 93 85 2.0 2.0 0.00 0.00 0.00 58 1017.7
20260901162332 92 76 1.0 2.0 0.00 0.00 0.00 58 1017.9
20260901161332 93 57 2.0 2.0 0.00 0.00 0.00 57 1017.8
20260901160330 93 60 1.0 1.0 0.00 0.00 0.00 60 1017.9
20260901155329 92 25 1.0 1.0 0.00 0.00 0.00 60 1018.0
20260901154324 91 63 1.0 1.0 0.00 0.00 0.00 61 1018.1
20260901153319 91 58 1.0 2.0 0.00 0.00 0.00 62 1018.1
20260901152318 89 32 1.0 1.0 0.00 0.00 0.00 65 1018.0
20260901151314 92 36 0.0 0.0 0.00 0.00 0.00 62 1017.9
20260901150311 89 47 0.0 0.0 0.00 0.00 0.00 66 1017.9
20260901145309 89 47 0.0 0.0 0.00 0.00 0.00 68 1018.0
20260901144306 88 57 1.0 1.0 0.00 0.00 0.00 70 1018.0
20260901143304 87 49 0.0 0.0 0.00 0.00 0.00 71 1018.0